Location: Newark
(55.4390°N, 25.0170°E)
Time: 02:22:02
(UTC+00:00)

Envisat - Pass Details

Date: 07 March 2021
Orbit: 764 x 766 km, 98.1° (Epoch: 18 April)

Event Time Altitude Azimuth Distance (km) Brightness Sun altitude
Rises 04:06:23 0° 16° (NNE) 3,249 6.5 -7.8°
Reaches altitude 10° 04:08:43 10° 19° (NNE) 2,318 5.8 -7.4°
Maximum altitude 04:13:49 71° 103° (ESE) 814 3.4 -6.7°
Drops below altitude 10° 04:18:53 10° 188° (S) 2,300 5.4 -6.0°
Sets 04:21:11 0° 191° (S) 3,221 6.1 -5.7°
